Welcome to Des Moines Iowa Weather. I am an independent private personal weather station on the Northwest Side of Des Moines, Iowa. Just East of Windsor Heights and just West of Glendale . This site is also mobile friendly.

There are no active watches, warnings or advisories


Visit our other weather sites:

Historical Data

Weather Station Setup



Weather Underground History page Text

Daily Summary for March 26, 2017 Units:  English    Metric   Both
« Previous Day
Next Day »
Daily Weekly Monthly Yearly Custom
  High: Low: Average:
Temperature: 46.3 °F 39.9 °F 42.4 °F
Dew Point: 45.0 °F 39.0 °F 41.6 °F
Humidity: 99 % 91 % 97 %
Wind Speed: 6.0 mph 0.0 mph 1.1 mph
Wind Gust: 11.0 mph - -
Wind:- - SW
Pressure: 29.96 in 29.85 in -
Precipitation: 0.00 in    
Historical Graphs
 
 
Tabular Data for March 26, 2017
Time Temperature Dew Point Pressure Wind Wind Speed Wind Gust Humidity Rainfall Rate (Hourly)
00:00 41.0 °F 40.0 °F 29.91 in NNE 1.0 mph 5.0 mph 97 % 0.00 in
00:15 40.9 °F 40.0 °F 29.91 in NE 3.0 mph 4.0 mph 97 % 0.00 in
00:30 40.9 °F 40.0 °F 29.89 in NNE 4.0 mph 5.0 mph 97 % 0.00 in
00:45 40.8 °F 40.0 °F 29.89 in Calm   5.0 mph 97 % 0.00 in
01:00 40.8 °F 40.0 °F 29.88 in Calm   6.0 mph 97 % 0.00 in
01:15 40.6 °F 40.0 °F 29.88 in NE 2.0 mph 5.0 mph 97 % 0.00 in
01:30 40.5 °F 40.0 °F 29.88 in East 3.0 mph 9.0 mph 98 % 0.00 in
01:45 40.5 °F 40.0 °F 29.88 in Calm   5.0 mph 98 % 0.00 in
02:01 40.4 °F 40.0 °F 29.87 in Calm   8.0 mph 97 % 0.00 in
02:16 40.4 °F 40.0 °F 29.87 in Calm   7.0 mph 98 % 0.00 in
02:31 40.4 °F 40.0 °F 29.87 in East 3.0 mph 5.0 mph 98 % 0.00 in
02:46 40.4 °F 40.0 °F 29.87 in Calm   5.0 mph 98 % 0.00 in
03:01 40.5 °F 40.0 °F 29.87 in Calm   6.0 mph 98 % 0.00 in
03:16 40.5 °F 40.0 °F 29.87 in Calm   8.0 mph 98 % 0.00 in
03:31 40.6 °F 40.0 °F 29.86 in NNE 3.0 mph 3.0 mph 98 % 0.00 in
03:46 40.6 °F 40.0 °F 29.86 in Calm   5.0 mph 98 % 0.00 in
04:01 40.6 °F 40.0 °F 29.86 in Calm   3.0 mph 98 % 0.00 in
04:16 40.6 °F 40.0 °F 29.85 in Calm   6.0 mph 98 % 0.00 in
04:31 40.6 °F 40.0 °F 29.86 in Calm   3.0 mph 98 % 0.00 in
04:46 40.5 °F 40.0 °F 29.86 in Calm   4.0 mph 98 % 0.00 in
05:01 40.5 °F 40.0 °F 29.85 in Calm   2.0 mph 98 % 0.00 in
05:16 40.5 °F 40.0 °F 29.85 in Calm   4.0 mph 98 % 0.00 in
05:31 40.5 °F 40.0 °F 29.86 in Calm   5.0 mph 98 % 0.00 in
05:46 40.5 °F 40.0 °F 29.86 in WNW 3.0 mph 6.0 mph 98 % 0.00 in
06:01 40.4 °F 40.0 °F 29.87 in NNW 3.0 mph 8.0 mph 98 % 0.00 in
06:17 40.3 °F 40.0 °F 29.87 in NNW 2.0 mph 9.0 mph 98 % 0.00 in
06:31 40.3 °F 40.0 °F 29.87 in NW 3.0 mph 9.0 mph 98 % 0.00 in
06:46 40.1 °F 40.0 °F 29.87 in North 5.0 mph 9.0 mph 98 % 0.00 in
07:01 40.1 °F 40.0 °F 29.87 in NNW 3.0 mph 6.0 mph 98 % 0.00 in
07:16 40.0 °F 40.0 °F 29.87 in Calm   6.0 mph 98 % 0.00 in
07:31 40.0 °F 40.0 °F 29.87 in NE 4.0 mph 5.0 mph 98 % 0.00 in
07:46 40.0 °F 40.0 °F 29.88 in Calm   4.0 mph 98 % 0.00 in
08:01 40.0 °F 40.0 °F 29.88 in NNW 3.0 mph 5.0 mph 98 % 0.00 in
08:16 40.0 °F 40.0 °F 29.89 in NNE 4.0 mph 7.0 mph 98 % 0.00 in
08:31 40.0 °F 40.0 °F 29.89 in Calm   9.0 mph 98 % 0.00 in
08:46 39.9 °F 39.0 °F 29.89 in Calm   6.0 mph 98 % 0.00 in
09:01 39.9 °F 39.0 °F 29.88 in Calm   6.0 mph 98 % 0.00 in
09:16 40.0 °F 40.0 °F 29.88 in NNW 3.0 mph 8.0 mph 98 % 0.00 in
09:31 40.0 °F 40.0 °F 29.89 in NW 2.0 mph 4.0 mph 98 % 0.00 in
09:46 40.2 °F 40.0 °F 29.89 in Calm   5.0 mph 98 % 0.00 in
10:01 40.3 °F 40.0 °F 29.89 in Calm   8.0 mph 98 % 0.00 in
10:16 40.4 °F 40.0 °F 29.90 in Calm   4.0 mph 98 % 0.00 in
10:31 40.8 °F 40.0 °F 29.91 in NNW 1.0 mph 5.0 mph 98 % 0.00 in
10:46 40.7 °F 40.0 °F 29.91 in Calm   8.0 mph 98 % 0.00 in
11:01 41.0 °F 41.0 °F 29.91 in Calm   5.0 mph 98 % 0.00 in
11:16 41.3 °F 41.0 °F 29.91 in NW 1.0 mph 8.0 mph 98 % 0.00 in
11:31 41.6 °F 41.0 °F 29.91 in NNW 4.0 mph 6.0 mph 98 % 0.00 in
11:46 41.8 °F 41.0 °F 29.90 in Calm   6.0 mph 98 % 0.00 in
12:01 42.4 °F 42.0 °F 29.90 in Calm   9.0 mph 98 % 0.00 in
12:16 42.7 °F 43.0 °F 29.89 in Calm   8.0 mph 99 % 0.00 in
12:31 43.2 °F 43.0 °F 29.89 in North 1.0 mph 6.0 mph 99 % 0.00 in
12:47 43.7 °F 43.0 °F 29.89 in Calm   6.0 mph 98 % 0.00 in
13:02 44.1 °F 44.0 °F 29.89 in NW 1.0 mph 9.0 mph 98 % 0.00 in
13:17 44.3 °F 44.0 °F 29.89 in NNW 6.0 mph 11.0 mph 98 % 0.00 in
13:32 44.6 °F 44.0 °F 29.90 in West 3.0 mph 9.0 mph 98 % 0.00 in
13:47 44.8 °F 44.0 °F 29.90 in Calm   6.0 mph 98 % 0.00 in
14:02 45.0 °F 44.0 °F 29.91 in NW 3.0 mph 5.0 mph 97 % 0.00 in
14:17 45.3 °F 45.0 °F 29.90 in NNW 5.0 mph 5.0 mph 97 % 0.00 in
14:33 45.5 °F 45.0 °F 29.90 in NNW 1.0 mph 9.0 mph 97 % 0.00 in
14:48 45.7 °F 45.0 °F 29.90 in West 1.0 mph 8.0 mph 96 % 0.00 in
17:36 46.1 °F 44.0 °F 29.91 in NNW 2.0 mph 6.0 mph 92 % 0.00 in
17:50 46.1 °F 44.0 °F 29.91 in North 2.0 mph 6.0 mph 92 % 0.00 in
18:05 46.2 °F 44.0 °F 29.91 in North 1.0 mph 5.0 mph 92 % 0.00 in
18:20 46.2 °F 44.0 °F 29.92 in Calm   6.0 mph 92 % 0.00 in
18:35 46.3 °F 44.0 °F 29.91 in NW 2.0 mph 5.0 mph 92 % 0.00 in
18:50 46.2 °F 44.0 °F 29.91 in NNW 1.0 mph 6.0 mph 91 % 0.00 in
19:05 46.0 °F 44.0 °F 29.91 in NNE 1.0 mph 8.0 mph 92 % 0.00 in
19:20 45.8 °F 44.0 °F 29.91 in North 2.0 mph 5.0 mph 92 % 0.00 in
19:35 45.7 °F 44.0 °F 29.93 in Calm   5.0 mph 92 % 0.00 in
19:50 45.5 °F 44.0 °F 29.94 in Calm   3.0 mph 93 % 0.00 in
20:05 45.3 °F 43.0 °F 29.94 in Calm     93 % 0.00 in
20:20 45.3 °F 43.0 °F 29.94 in Calm     93 % 0.00 in
20:35 45.2 °F 44.0 °F 29.95 in Calm     94 % 0.00 in
20:51 45.1 °F 44.0 °F 29.96 in Calm     94 % 0.00 in
21:06 45.0 °F 43.0 °F 29.95 in Calm     93 % 0.00 in
21:21 44.9 °F 43.0 °F 29.96 in Calm     94 % 0.00 in
21:36 44.8 °F 43.0 °F 29.95 in Calm     94 % 0.00 in
21:51 44.7 °F 43.0 °F 29.96 in Calm     94 % 0.00 in
22:06 44.7 °F 43.0 °F 29.96 in Calm     94 % 0.00 in
22:21 44.6 °F 43.0 °F 29.96 in Calm     94 % 0.00 in
22:36 44.6 °F 43.0 °F 29.96 in Calm     95 % 0.00 in
22:51 44.5 °F 43.0 °F 29.95 in Calm   3.0 mph 95 % 0.00 in
23:06 44.4 °F 43.0 °F 29.94 in Calm   3.0 mph 95 % 0.00 in
23:21 44.4 °F 43.0 °F 29.93 in Calm     95 % 0.00 in
23:36 44.3 °F 43.0 °F 29.95 in Calm     95 % 0.00 in
23:51 44.2 °F 43.0 °F 29.94 in Calm     95 % 0.00 in
Des Moines Weather and Climate
Compliments of Weather Underground - 2.75 mb

Script developed by  Jim McMurry - jmcmurry@mwt.net Adapted for the template by  Wim van der Kuil - Leuven-Template.eu

You find our weather info also at:

Weather Underground

Equipment we use:

Weather-station
Davis VP2 Plus

Weather-program
Davis Weatherlink.Com

Weather-server
iMac (Retina 4K, 21.5-inch, Late 2015)

Provider
Hostmonster.com

Davis VP2 Plus

Davis Weatherlink.Com

iMac (Retina 4K, 21.5-inch, Late 2015)

Hostmonster.com